Regional Weather Roundup
Issued by NWS

Home | Current Version | Previous Version | Graphics & Text | Print | Product List | Glossary On
Versions: 1 2 3 4 5 6 7 8 9 10 11 12 13 14 15 16 17 18 19 20 21 22 23 24 25 26 27 28 29 30 31 32 33 34 35 36 37 38 39 40 41 42 43 44 45 46 47 48
000
ASUS45 KPSR 240410
RWRAZ

ARIZONA REGIONAL HOURLY WEATHER ROUNDUP
NATIONAL WEATHER SERVICE TUCSON AZ
900 PM MST FRI JUN 23 2017

NOTE: FAIR INDICATES FEW OR NO CLOUDS BELOW 12,000 FEET WITH NO
SIGNIFICANT WEATHER AND/OR OBSTRUCTIONS TO VISIBILITY.

AZZ001>003-036-240500-
NORTHWEST ARIZONA

CITY           SKY/WX    TMP DP  RH WIND       PRES   REMARKS
BULLHEAD CITY  CLEAR    111  37   8 SE20      29.63R HX 104
KINGMAN        CLEAR     88  35  15 SW9       29.93R
$$

AZZ004>008-015-016-018-240500-
NORTH CENTRAL ARIZONA

CITY           SKY/WX    TMP DP  RH WIND       PRES   REMARKS
GRAND CANYON   CLEAR     64  28  25 CALM      30.21R
PRESCOTT       CLEAR     85  30  13 SW5       30.08R
FLAGSTAFF      PTCLDY    76  27  16 SW7       30.24R
PAYSON         CLEAR     86  41  20 W5        30.12R
PAGE           CLEAR     93  17   6 NW3       29.98R
$$

AZZ009>014-017-240500-
NORTHEAST ARIZONA

CITY           SKY/WX    TMP DP  RH WIND       PRES   REMARKS
WINSLOW        PTCLDY    88  32  13 W10       30.03R
SAINT JOHNS    CLEAR     78  24  13 CALM      30.09R
WINDOW ROCK    CLEAR     76  27  16 N7        30.20R
SHOW LOW       CLEAR     75  37  25 SW7       30.20R
$$

AZZ023-240500-
GREATER PHOENIX AREA

CITY           SKY/WX    TMP DP  RH WIND       PRES   REMARKS
PHOENIX        PTCLDY   105  43  12 W10       29.69R HX 100
BUCKEYE        CLEAR    100  45  15 SW10      29.71R
LUKE AFB       PTCLDY   103  47  15 SW13      29.69R
DEER VALLEY    PTCLDY   102  46  15 SW7       29.72R
SCOTTSDALE     CLEAR    104  43  12 W8        29.74R
MESA-GATEWAY   PTCLDY   100  46  16 CALM      29.74R
CHANDLER       CLEAR    102  43  13 SW9       29.71R
$$

AZZ027-028-240500-
SOUTHWEST MARICOPA COUNTY AND PINAL COUNTY

CITY           SKY/WX    TMP DP  RH WIND       PRES   REMARKS
CASA GRANDE    CLEAR     99  46  16 W10       29.75R
$$

AZZ503-504-507>509-240500-
SOUTHEAST ARIZONA

CITY           SKY/WX    TMP DP  RH WIND       PRES   REMARKS
TUCSON         CLEAR    100  42  13 N9        29.87R
DAVIS-MONTHAN  PTCLDY    95  40  14 NW8       29.86R
NOGALES        PTCLDY    90  43  19 W6        29.98R
SIERRA VISTA   CLEAR     87  32  14 W12       30.07R
DOUGLAS        PTCLDY    88  31  13 NW9       29.98R
SAFFORD        CLEAR     95  38  13 NW14      29.86R
$$

AZZ020-021-025-026-031-240500-
SOUTHWEST ARIZONA

CITY           SKY/WX    TMP DP  RH WIND       PRES   REMARKS
YUMA           MOCLDY    94  54  25 SW6       29.69R
$$

CAZ031-033-041-043-047-048-061-240500-
SOUTHERN CALIFORNIA

CITY           SKY/WX    TMP DP  RH WIND       PRES   REMARKS
DOWNTOWN L.A.  CLOUDY    65  60  84 W3        29.91S
L.A. AIRPORT   CLOUDY    63  61  93 W10       29.92R
SAN DIEGO      MOCLDY    67  61  81 NW8       29.93R
BURBANK        CLEAR     66  59  78 SE7       29.91R
ONTARIO        PTCLDY    71  59  65 W13       29.91R
RIVERSIDE      CLEAR     72  61  68 W12       29.91R
PALM SPRINGS   MOCLDY   102  53  19 NW12      29.72R HX 100
EL CENTRO NAS  PTCLDY    95  61  32 S7        29.67R
IMPERIAL       PTCLDY    97  63  32 SE10      29.64R
BLYTHE         CLEAR    105  52  17 SW13      29.67R HX 103
NEEDLES        PTCLDY   111  42  10 SW16      29.67R HX 105
$$

NVZ020-UTZ003-240500-
SOUTHERN NEVADA-UTAH

CITY           SKY/WX    TMP DP  RH WIND       PRES   REMARKS
LAS VEGAS      PTCLDY   107  19   4 SW8       29.76S
SALT LAKE CITY CLEAR     78  41  26 W3        30.13R
$$

NMZ009-TXZ055-240500-
NEW MEXICO-WEST TEXAS

CITY           SKY/WX    TMP DP  RH WIND       PRES   REMARKS
ALBUQUERQUE    PTCLDY    78  53  41 E28G36    30.13R
EL PASO        PTCLDY    92  53  26 E21G28    29.95R
$$


........................KEY........................
SKY/WX - SKY CONDITION/WEATHER
TMP    - TEMPERATURE IN FAHRENHEIT
DP     - DEWPOINT IN FAHRENHEIT
RH     - RELATIVE HUMIDITY IN PERCENT
WIND   - DIRECTION AND SPEED IN MILES PER HOUR (MPH)
VRB    - VARIABLE WIND DIRECTION
PRES   - MEAN SEA LEVEL PRESSURE IN INCHES OF MERCURY
         F - FALLING PRESSURE   R - RISING PRESSURE
         S - STEADY PRESSURE
VSB    - VISIBILITY IN MILES
HX     - HEAT INDEX IN FAHRENHEIT
WCI    - WIND CHILL INDEX IN FAHRENHEIT
TC     - TEMPERATURE IN CELSIUS WHICH IS ALSO KNOWN AS
         TEMPERATURE IN CENTIGRADE
AFB    - AIR FORCE BASE
         LUKE AFB IS LUKE AIR FORCE BASE
         DAVIS-MONTHAN IS DAVIS-MONTHAN AIR FORCE BASE
NAS    - NAVAL AIR STATION
         EL CENTRO NAS IS EL CENTRO NAVAL AIR STATION
N/A    - NOT AVAILABLE





USA.gov is the U.S. government's official web portal to all federal, state and local government web resources and services.